This is the latest recevied weather packets stored in our database for station/object KB5DPX. If no packets are shown the sender has not sent any weather packets the latest 1 day(s).
| Time | Temp. | Humidity | Pressure | Rain* | Wind** | Luminosity | Snow |
|---|---|---|---|---|---|---|---|
| 1778044959 | 3.33° C | 71% | 1011.6 hPa | 0 mm | 0 m/s | 0 W/m² | - |
| 1778044663 | 3.33° C | 71% | 1011.4 hPa | 0 mm | 0 m/s | 0 W/m² | - |
| 1778044366 | 3.33° C | 71% | 1011.4 hPa | 0 mm | 0 m/s | 0 W/m² | - |
| 1778044051 | 3.33° C | 71% | 1011.4 hPa | 0 mm | 0 m/s | 0 W/m² | - |
| 1778043764 | 3.33° C | 71% | 1011.2 hPa | 0 mm | 0 m/s | 0 W/m² | - |
| 1778043458 | 3.33° C | 70% | 1011.3 hPa | 0 mm | 0 m/s | 0 W/m² | - |
| 1778043145 | 3.33° C | 70% | 1011.3 hPa | 0 mm | 0 m/s | 0 W/m² | - |
| 1778042854 | 3.33° C | 71% | 1011.3 hPa | 0 mm | 0 m/s | 0 W/m² | - |
| 1778042540 | 3.33° C | 70% | 1011.2 hPa | 0 mm | 0.45 m/s, 30° | 0 W/m² | - |
| 1778042255 | 3.33° C | 70% | 1011.2 hPa | 0 mm | 1.34 m/s, 30° | 0 W/m² | - |
| 1778041962 | 3.33° C | 69% | 1011.2 hPa | 0 mm | 0.89 m/s, 31° | 0 W/m² | - |
| 1778041640 | 3.33° C | 70% | 1011.2 hPa | 0 mm | 0.89 m/s, 31° | 0 W/m² | - |
| 1778041355 | 3.33° C | 70% | 1011.1 hPa | 0 mm | 1.34 m/s, 31° | 0 W/m² | - |
| 1778041041 | 3.33° C | 70% | 1011.3 hPa | 0 mm | 1.34 m/s, 32° | 0 W/m² | - |
| 1778040757 | 3.33° C | 70% | 1011.2 hPa | 0 mm | 1.34 m/s, 34° | 0 W/m² | - |
| 1778040460 | 3.33° C | 70% | 1011.1 hPa | 0 mm | 1.79 m/s, 35° | 0 W/m² | - |
| 1778040165 | 3.33° C | 71% | 1011.1 hPa | 0 mm | 1.79 m/s, 31° | 0 W/m² | - |
| 1778039854 | 3.33° C | 71% | 1011.1 hPa | 0 mm | 1.34 m/s, 30° | 0 W/m² | - |
| 1778039561 | 3.33° C | 71% | 1011 hPa | 0 mm | 2.24 m/s, 37° | 0 W/m² | - |
| 1778039245 | 3.33° C | 70% | 1011 hPa | 0 mm | 2.24 m/s, 32° | 0 W/m² | - |
| 1778038961 | 3.33° C | 71% | 1011 hPa | 0 mm | 2.24 m/s, 27° | 0 W/m² | - |
| 1778038646 | 3.33° C | 71% | 1011 hPa | 0 mm | 2.24 m/s, 17° | 0 W/m² | - |
| 1778038360 | 3.33° C | 72% | 1010.9 hPa | 0 mm | 3.13 m/s, 43° | 0 W/m² | - |
| 1778038056 | 3.89° C | 72% | 1010.9 hPa | 0 mm | 3.13 m/s, 17° | 0 W/m² | - |
| 1778037741 | 3.89° C | 72% | 1011 hPa | 0 mm | 3.13 m/s, 11° | 0 W/m² | - |
* Rain latest hour (hover to see other rain measurements)
** Current wind speed in m/s (hover to see current wind gust speed)